SBIRS GEO-1 (USA 230)

Last updated on Jan. 20, 2021, 6:22 a.m. UTC

1 37481U 11019A   21019.94036838 -.00000001  00000-0  00000-0 0  9991
2 37481   1.8788 353.8257 0001820 305.6061 224.8227  1.00272001 35606
UTC
Height (km)
Latitude
Longitude
Inclination
Orbital Period
UTC large
Height (km)
Speed (km/s)
/
Latitude / Longitude
Inclination (degrees)
Orbital Period (minutes)
Azimuth
Elevation
Range (km)
Doppler Factor
iOS Compass Heading
iOS Angle

Next 30 passes for location: Hong Kong

Rise time Rise Azimuth (degrees) Set time Set Azimuth (degrees) Duration Max altitude (degrees)

No matching passes for this satellites